Total_Precipitation_Accumulation
2.82 2.91 3.50 3.41 2.85 2.74 2.81 2.77 2.84 2.74 2.77 2.87 2.84 2.72 2.59 2.52 2.37 2.39 2.38 2.38 2.36 2.44 2.56 2.60 2.53 2.49 2.44 2.31 2.28 2.44 2.49 2.36 2.62 2.68 2.73 2.71 2.64 2.68 2.79 2.86 2.94 2.10 1.84
2.28 2.26 2.78 2.86 2.67 2.73 2.68 2.72 2.79 2.63 2.60 2.70 2.76 2.65 2.52 2.39 2.38 2.35 2.32 2.38 2.43 2.46 2.61 2.60 2.36 2.24 2.09 1.97 2.04 2.31 2.42 2.45 2.71 2.89 3.04 3.04 3.00 2.98 3.02 3.02 3.02 2.00 1.86
1.84 1.83 2.09 2.38 2.31 2.43 2.45 2.37 2.41 2.33 2.35 2.47 2.56 2.61 2.62 2.49 2.44 2.37 2.27 2.39 2.46 2.39 2.50 2.39 2.16 2.01 1.85 1.73 1.84 2.25 2.42 2.65 3.12 3.33 3.67 3.24 2.78 3.16 3.10 3.01 2.68 1.96 1.85
1.55 1.64 1.72 2.12 2.15 2.04 1.97 2.03 2.22 2.16 2.11 2.20 2.40 2.61 2.73 2.74 2.61 2.52 2.42 2.44 2.40 2.35 2.50 2.32 2.06 1.80 1.65 1.63 1.80 2.09 2.35 2.71 3.20 3.72 3.98 3.08 2.31 2.64 2.67 2.52 2.42 2.04 1.84
1.30 1.46 1.71 1.89 1.89 1.78 1.72 1.81 2.01 1.93 1.96 2.04 2.13 2.37 2.57 2.71 2.82 2.77 2.55 2.38 2.30 2.33 2.35 2.20 1.94 1.68 1.50 1.52 1.73 1.97 2.20 2.71 3.31 3.50 3.09 2.95 2.70 2.56 2.33 2.25 2.28 2.05 1.78
1.16 1.32 1.55 1.71 1.63 1.52 1.53 1.68 1.84 1.86 1.90 1.91 1.91 2.16 2.34 2.41 2.49 2.55 2.49 2.27 2.19 2.15 2.13 2.23 1.90 1.66 1.55 1.58 1.73 1.90 2.14 2.65 3.00 2.64 2.35 2.49 2.26 2.31 2.25 2.31 2.37 2.21 1.86
1.14 1.32 1.43 1.58 1.54 1.50 1.56 1.58 1.68 1.85 1.84 1.78 1.86 2.10 2.26 2.30 2.44 2.42 2.28 2.03 1.88 2.00 2.02 2.09 1.91 1.67 1.56 1.60 1.62 1.73 2.06 2.44 2.35 2.10 2.19 2.42 1.95 1.84 2.16 2.47 2.72 2.54 2.12
0.98 1.19 1.32 1.45 1.49 1.50 1.50 1.49 1.55 1.58 1.60 1.68 1.83 2.03 2.05 2.08 2.21 2.18 2.10 1.95 1.73 1.86 1.86 1.78 1.88 1.69 1.61 1.56 1.50 1.52 1.77 2.03 1.81 1.74 1.99 2.14 1.69 1.83 2.27 2.63 2.98 2.86 2.46
0.95 1.06 1.30 1.46 1.49 1.48 1.47 1.44 1.54 1.60 1.54 1.56 1.70 1.87 2.00 1.96 1.91 1.86 1.91 1.89 1.72 1.69 1.61 1.57 1.72 1.79 1.66 1.54 1.43 1.49 1.70 2.04 1.91 1.84 1.71 1.81 1.69 1.95 2.45 2.69 2.88 2.81 2.58
1.34 1.27 1.23 1.27 1.38 1.42 1.35 1.48 1.62 1.66 1.57 1.55 1.67 1.84 2.01 1.92 1.83 1.74 1.61 1.74 1.74 1.63 1.53 1.48 1.61 1.74 1.55 1.55 1.55 1.67 1.86 1.98 1.91 1.91 1.85 1.65 1.74 2.11 2.52 2.65 2.83 2.71 2.52
1.91 1.89 1.59 1.38 1.38 1.48 1.34 1.36 1.72 1.86 1.76 1.87 2.04 2.11 2.28 2.29 2.08 2.05 1.93 2.03 1.92 1.85 1.80 1.77 1.74 1.89 1.68 1.51 1.64 1.85 1.85 1.88 2.27 2.34 1.86 1.58 1.88 2.43 2.70 2.77 2.75 2.60 2.49
2.36 2.37 2.02 1.75 1.52 1.37 1.18 1.45 1.86 1.85 2.01 2.20 2.36 2.26 2.58 2.78 2.62 2.09 2.34 2.65 2.57 2.50 2.34 2.29 2.19 1.99 1.93 1.79 2.16 2.44 1.99 2.19 2.56 2.44 1.97 1.90 2.38 2.91 3.27 3.21 2.85 2.51 2.37
2.71 2.56 2.17 1.95 1.76 1.48 1.55 1.52 1.78 2.12 2.40 2.32 2.15 2.19 2.64 2.56 2.35 2.32 2.50 2.69 2.87 2.69 2.56 2.59 2.64 2.38 2.53 2.92 3.05 2.80 2.31 2.42 2.56 2.49 2.23 2.28 2.85 3.56 3.95 3.76 3.23 2.79 2.50
2.86 2.59 2.27 2.02 1.84 1.74 1.69 1.68 1.82 1.95 2.17 2.25 2.37 2.30 2.56 2.99 2.95 2.86 2.96 2.94 3.04 3.14 3.46 3.25 3.36 3.13 3.02 3.00 3.11 2.89 2.68 2.77 2.79 3.08 3.19 3.02 3.30 3.78 4.30 4.18 3.64 3.18 2.95
3.00 2.83 2.56 2.19 2.16 2.11 2.26 2.36 2.04 2.10 2.19 2.44 2.76 2.73 2.74 3.13 3.14 3.11 3.14 3.25 3.06 3.10 3.30 3.61 3.46 3.53 3.57 3.29 2.94 2.80 2.95 3.00 3.11 3.18 3.29 3.48 3.37 3.51 4.18 4.40 4.03 3.62 3.43
3.48 3.47 3.20 2.79 2.75 2.76 2.68 2.72 2.65 2.37 2.57 2.67 2.85 2.81 2.91 3.18 3.34 3.28 3.09 3.23 3.09 3.05 3.17 3.43 3.47 3.91 3.90 3.79 3.28 3.03 3.07 3.12 3.15 3.24 3.24 3.58 3.49 3.30 3.74 4.15 4.28 4.14 3.93
3.64 3.83 3.77 3.56 3.57 3.55 3.33 3.09 2.89 2.78 2.76 3.04 3.15 3.05 3.10 3.12 3.32 3.29 3.24 3.13 3.11 3.17 3.41 3.49 3.53 3.87 3.87 3.80 3.62 3.33 3.18 2.93 2.83 2.95 2.99 3.18 3.12 3.07 3.33 3.71 4.05 4.22 4.28
3.83 4.07 4.27 4.15 4.17 4.06 3.96 3.72 3.36 3.23 3.26 3.22 3.13 3.18 3.06 3.13 3.20 3.43 3.31 3.08 3.17 3.14 3.39 3.79 3.89 4.09 4.21 4.17 3.87 3.49 3.26 3.12 2.90 2.91 2.75 2.73 3.00 2.66 2.95 3.37 3.64 3.88 4.42
4.15 4.56 4.95 5.01 4.92 4.61 4.29 4.13 4.01 3.86 3.67 3.40 3.33 3.29 3.12 3.04 3.02 3.34 3.31 3.27 3.29 3.50 3.55 3.35 3.98 4.30 4.45 4.35 3.60 3.41 3.01 2.91 2.78 2.60 2.65 2.53 2.72 2.80 2.87 2.85 3.00 3.29 4.20
4.64 5.27 5.39 5.39 5.63 5.39 5.06 4.88 4.69 4.29 3.93 3.63 3.49 3.37 3.07 3.00 2.93 3.31 3.14 3.15 3.28 3.66 3.81 3.90 4.38 4.39 4.23 4.34 3.57 3.18 2.73 2.37 2.34 2.38 2.21 2.24 2.32 2.26 2.54 2.99 3.35 3.08 3.57
4.45 5.09 5.77 5.96 5.81 5.61 5.34 4.89 4.55 4.14 3.91 3.62 3.31 3.08 3.00 2.96 3.09 3.60 3.27 3.58 3.50 3.61 3.70 3.84 4.16 4.15 3.90 4.14 4.16 3.46 2.57 2.04 2.02 1.92 1.93 2.02 1.96 1.98 2.32 2.96 3.28 3.35 3.15
3.86 4.33 4.82 5.17 4.85 4.48 4.31 4.25 4.12 4.04 3.63 3.48 3.40 3.47 3.14 3.15 3.19 3.26 3.55 3.47 3.53 3.68 3.49 3.57 3.94 3.82 3.37 3.75 4.16 4.18 3.28 2.64 2.08 1.55 1.70 1.78 1.89 2.07 2.10 2.20 2.67 3.23 3.17
3.31 3.46 3.64 3.88 3.95 3.96 4.02 4.10 4.25 4.43 4.10 3.96 3.89 3.79 3.32 3.20 3.20 3.30 3.27 3.25 3.42 3.37 3.39 3.38 3.55 3.70 3.54 3.53 3.89 4.26 3.65 2.98 2.35 1.77 1.62 1.58 1.90 2.23 2.19 2.19 2.44 2.88 3.07
2.65 2.90 3.40 3.62 3.73 3.93 4.19 4.21 4.26 4.25 4.19 4.16 4.24 4.15 3.96 3.67 3.44 3.21 3.05 3.04 3.07 2.99 3.15 2.91 3.18 3.41 3.63 3.37 3.45 3.40 3.28 3.22 3.08 2.38 1.84 1.65 1.90 2.13 2.24 2.21 2.33 2.66 2.94
2.22 2.56 3.15 3.71 3.93 4.09 4.30 4.41 4.67 4.49 4.34 4.19 4.24 4.32 4.09 3.80 3.47 3.08 3.06 3.06 3.03 2.92 2.84 2.78 3.03 2.99 3.12 3.18 3.22 3.18 3.23 3.19 2.99 2.74 2.33 2.11 1.98 1.71 1.76 1.92 2.15 2.48 2.74
2.34 2.66 3.11 3.58 3.91 4.07 4.16 4.20 4.31 4.34 4.34 4.10 3.99 3.70 3.27 3.13 3.02 2.78 2.76 2.83 2.75 2.77 2.81 2.77 2.80 2.79 2.86 2.96 2.99 2.99 3.11 3.07 3.04 3.07 2.74 2.48 2.22 1.84 1.69 1.76 1.94 2.18 2.39